This is the latest recevied weather packets stored in our database for station/object EA1CZ-10. If no packets are shown the sender has not sent any weather packets the latest 10 day(s).
| Time | Temp. | Humidity | Pressure | Rain* | Wind** | Luminosity | Snow |
|---|---|---|---|---|---|---|---|
| 1777668033 | 14.44° C | 65% | 1032.4 hPa | - | - | - | - |
| 1777666233 | 14.44° C | 65% | 1032.6 hPa | - | - | - | - |
| 1777664432 | 14.44° C | 65% | 1032.4 hPa | - | - | - | - |
| 1777662632 | 15° C | 65% | 1032.2 hPa | - | - | - | - |
| 1777660832 | 15° C | 64% | 1032.1 hPa | - | - | - | - |
| 1777659031 | 15.56° C | 64% | 1032.1 hPa | - | - | - | - |
| 1777657231 | 16.11° C | 64% | 1032 hPa | - | - | - | - |
| 1777655431 | 16.67° C | 63% | 1032.2 hPa | - | - | - | - |
| 1777653631 | 18.89° C | 63% | 1032.1 hPa | - | - | - | - |
| 1777651831 | 18.89° C | 63% | 1032 hPa | - | - | - | - |
| 1777650031 | 17.22° C | 63% | 1032 hPa | - | - | - | - |
| 1777648231 | 19.44° C | 63% | 1032.2 hPa | - | - | - | - |
| 1777646431 | 20° C | 63% | 1032.3 hPa | - | - | - | - |
| 1777644631 | 21.67° C | 63% | 1032.5 hPa | - | - | - | - |
| 1777642830 | 18.89° C | 63% | 1032.6 hPa | - | - | - | - |
| 1777641030 | 21.67° C | 62% | 1032.8 hPa | - | - | - | - |
| 1777639274 | 22.78° C | 62% | 1032.8 hPa | - | - | - | - |
| 1777639230 | 22.78° C | 62% | 1032.8 hPa | - | - | - | - |
| 1777637430 | 22.78° C | 62% | 1032.8 hPa | - | - | - | - |
| 1777635630 | 23.33° C | 62% | 1032.9 hPa | - | - | - | - |
| 1777633830 | 23.33° C | 62% | 1032.8 hPa | - | - | - | - |
| 1777632030 | 22.22° C | 63% | 1032.9 hPa | - | - | - | - |
| 1777630230 | 21.67° C | 64% | 1033 hPa | - | - | - | - |
| 1777628430 | 19.44° C | 65% | 1033 hPa | - | - | - | - |
| 1777626629 | 16.67° C | 66% | 1033.1 hPa | - | - | - | - |
* Rain since midnight (hover to see other rain measurements)
** Current wind speed in m/s (hover to see current wind gust speed)